Regional Weather Roundup
Issued by NWS State College, PA

Home | Current Version | Previous Version | Graphics & Text | Print | Product List | Glossary Off
Versions: 1 2 3 4 5 6 7 8 9 10 11 12 13 14 15 16 17 18 19 20 21 22 23 24 25 26 27 28 29 30 31 32 33 34 35 36 37 38 39 40 41 42 43 44 45 46 47 48 49 50

000
ASUS41 KCTP 201110
RWRCTP

REGIONAL WEATHER ROUNDUP
NATIONAL WEATHER SERVICE STATE COLLEGE PA
700 AM EDT SUN APR 20 2014

Note: "fair" indicates few or no clouds below 12,000 feet with no
significant weather and/or obstructions to visibility.

* = STATION THAT DOES NOT REPORT PRECIPITATION /E.G. RAIN...SNOW...ETC/
    THUNDER OR FOG.

PAZ002>004-007>009-013>016-020>023-029>032-201200-
WESTERN PENNSYLVANIA

CITY           SKY/WX    TMP DP  RH WIND       PRES   REMARKS
ERIE           CLEAR     46  23  40 S14G20    30.34R
MEADVILLE      NOT AVBL
FRANKLIN*      CLEAR     39  23  52 E7        30.37R
NEW CASTLE     FAIR      41  26  55 CALM      30.36R
BEAVER COUNTY  NOT AVBL
BUTLER*        CLEAR     41  25  52 E6        30.36R
PITTSBURGH INT MOCLDY    44  27  51 E3        30.33R
PITTSBURGH     PTCLDY    45  26  47 CALM      30.32R
INDIANA*       PTCLDY    41  27  56 E5        30.36S
LATROBE        CLEAR     48  27  43 E6        30.34R
WASHINGTON CO* CLEAR     30  28  93 CALM      30.34R
$$

PAZ004>006-010>012-017>019-024>028-033>037-041-042-045-046-049>053-201200-
CENTRAL PENNSYLVANIA

CITY           SKY/WX    TMP DP  RH WIND       PRES   REMARKS
BRADFORD       CLEAR     28  22  78 SE5       30.37R
DUBOIS         CLEAR     39  25  57 E8        30.35R
CLEARFIELD     CLEAR     32  25  75 NE6       30.39S
JOHNSTOWN      PTCLDY    38  23  55 E8        30.34R
ALTOONA        PTCLDY    39  27  62 CALM      30.39R
STATE COLLEGE  CLEAR     36  27  69 CALM      30.42R
WILLIAMSPORT   CLEAR     33  27  78 NW3       30.44R
SELINSGROVE    PTCLDY    34  29  82 NW3       30.44R
FT INDIANTOWN  NOT AVBL
CAPITAL CITY   PTCLDY    44  28  53 E3        30.42R
HARRISBURG     MOCLDY    47  26  44 NE3       30.41R
YORK           MOCLDY    35  30  82 CALM      30.39R
$$

PAZ038>040-043-044-047-048-054-055-060>062-067>071-201200-
EASTERN PENNSYLVANIA

CITY           SKY/WX    TMP DP  RH WIND       PRES   REMARKS
SCRANTON       PTCLDY    40  25  55 NE8       30.43R
MOUNT POCONO   PTCLDY    39  23  52 E12       30.40R
ALLENTOWN      PTCLDY    43  27  53 E7        30.44R
QUAKERTOWN*    MOCLDY    45  32  61 E6        30.44R
READING        PTCLDY    45  26  47 N6        30.42R
LANCASTER      MOCLDY    42  28  57 NE8       30.40R
COATESVILLE    NOT AVBL
POTTSTOWN      MOCLDY    45  29  53 NE8       30.44R
BLUE BELL      MOCLDY    48  34  57 E12G18    30.41R
DOYLESTOWN     MOCLDY    44  34  67 MISG      30.43R
WILLOW GROVE   NOT AVBL
NORTH PHILA    CLOUDY    48  32  53 E14       30.44R
PHILADELPHIA   CLOUDY    48  34  58 E17       30.43R
$$



USA.gov is the U.S. government's official web portal to all federal, state and local government web resources and services.